DECAYED

STARLINK-1867, 47153 (Decayed)

Orbit data source: Space-Track

STARLINK-1867, 47153 was a payload satellite owned by SpaceX/Seattle (US) in LEO that was launched on Wed, 25 Nov 2020 UTC via an FALCON 9 launch vehicle from the Air Force Eastern Test Range (AFETR). Payload-class satellites include a variety of spacecraft equipped with specific instruments for various scientific and technological missions. These include communications satellites like Starlink; space stations such as the ISS; scientific satellites like the Hubble; Earth observation satellites from companies like Planet Labs, Umbra, and HawkEye 360; GPS; miniature CubeSats for education and research; and military/defense satellites.

Not visible in the next 10 days
Identifier
47153, 2020-088AH
Orbit
Decayed
Country
Flag of USUS
Related business
Manufacturer
SpaceX/Seattle
Mission
Decayed Commercial Communications
Bus & Motor
STARLINK, Unknown motor
Mass
260 kg wet, ~248 kg dry
Launch date (UTC)
2020-11-25 (6 years ago)
Launch vehicle
FALCON 9
Launch site
Air Force Eastern Test Range (AFETR)
Object type
Payload
Rocket body
Debris
Shape & HBR
Box + 1 Pan, 10.1 m
Radar Cross Section
13.562 m², Large (>1 m²)

Expand to show TLE details & history
Last TLE update: 1 year ago

TLE from 1 year ago
0 STARLINK-1867
1 47153U 20088AH  25090.66080774  .16939850  12367-4  37506-3 0  9990
2 47153  53.0161 353.7978 0011091 214.7661 232.6188 16.45683032241059
Epoch: 2025-03-31T15:51Z
TLE epoch observation values (Epoch: 2025-03-31T15:51:33.788Z)
Latitude
53.08956°
Longitude
12.11937°
Altitude
161.58 km
Speed
7.813 km/s
True Right ascension
05h 17m 08s
True Declination
52° 54' 33"
Sunlit
Object was in daylight at epoch
Visualization orbit readout
Latitude
Unknown
Longitude
Unknown
Altitude
Unknown
Speed
Unknown
Apparent Right ascension
Unknown
Apparent Declination
Unknown
Sunlit
N/A
Visualization observer readout
Local Sidereal Time
23:07:30
Azimuth
Unknown
Elevation
Unknown
Doppler factor
Unknown
Orbital elements
Apogee altitude
158.263 km
Perigee altitude
143.78 km
Semi-major axis
6,529.159 km
Eccentricity
0.00111
Inclination
53.0161°
RAAN
353.7978°
Arg. of periapsis
214.7661°
True anomaly
232.51789°
Mean anomaly
232.6188°
Eccentric anomaly
232.56834°
Mean motion
4.11393 °/min
Orbital period
87.51 mins
BSTAR
0.00037506
Loading maneuver chart data...
Computing Atmospheric mass density...

Documentation

Showing up to 5 results
|